Hourly Data Report for October 27, 2014

All times are specified in Local Standard Time (LST). Add 1 hour to adjust for Daylight Saving Time where and when it is observed.

CAPE DORSET A
NUNAVUT

64°13'49.000" N
76°31'30.000" W
48.20 m
2400637
71366
YTE

Download Data

Hourly Data (October 2014)
Hourly Data Report for October 27, 2014
Temp Definition
°C
Dew Point Temp Definition
°C
Rel Hum Definition
%
Wind Dir Definition
10's deg

Wind Spd Definition
km/h
Visibility Definition
km
Stn Press Definition
kPa
Hmdx Definition


Wind Chill Definition


Weather Definition


TIME
00:00 Legend Double Dagger -1.1 LegendMM LegendMM 11 48 1.6 100.23   -9 Snow
01:00 Legend Double Dagger -1.0 LegendMM LegendMM 10 43 1.2 100.19   -9 Snow
02:00 Legend Double Dagger -0.9 LegendMM LegendMM 11 46 1.0 100.16   -9 Snow
03:00 Legend Double Dagger -0.8 LegendMM LegendMM 11 48 1.2 100.15   -9 Snow
04:00 Legend Double Dagger -0.7 LegendMM LegendMM 11 46 1.6 100.12   -9 Snow
05:00 Legend Double Dagger -0.5 LegendMM LegendMM 12 45 8.1 100.09   -8 Haze
06:00 Legend Double Dagger -0.3 LegendMM LegendMM 12 41 6.4 100.08   -8 Snow
07:00 Legend Double Dagger -0.3 LegendMM LegendMM 12 41 2.4 100.06   -8 Snow
08:00 Legend Double Dagger -0.3 LegendMM LegendMM 12 30 2.8 100.06   -7 Snow
09:00 Legend Double Dagger -0.1 LegendMM LegendMM 13 32 2.4 100.04   -7 Snow
10:00 Legend Double Dagger 0.0 LegendMM LegendMM 13 32 3.6 100.01   -7 Snow
11:00 Legend Double Dagger 0.1 LegendMM LegendMM 13 26 4.0 99.98     Snow
12:00 Legend Double Dagger 0.2 LegendMM LegendMM 13 24 6.4 99.98     Rain,Snow
13:00 Legend Double Dagger 0.3 LegendMM LegendMM 14 24 4.8 99.96     LegendNANA
14:00 Legend Double Dagger 0.4 LegendMM LegendMM 15 28 4.8 99.98     LegendNANA
15:00 Legend Double Dagger 0.4 LegendMM LegendMM 16 28 8.1 99.99     Haze
16:00 Legend Double Dagger 0.3 LegendMM LegendMM 16 34 8.1 100.01     Rain
17:00 Legend Double Dagger 0.3 LegendMM LegendMM 16 30 8.1 100.00     Snow
18:00 Legend Double Dagger 0.2 LegendMM LegendMM 16 24 8.1 99.99     Rain
19:00 Legend Double Dagger 0.1 LegendMM LegendMM 18 26 8.1 99.99     Snow
20:00 Legend Double Dagger 0.2 LegendMM LegendMM 19 18 3.2 100.01     Snow
21:00 Legend Double Dagger 0.1 LegendMM LegendMM 19 22 8.1 99.99     Snow
22:00 Legend Double Dagger 0.2 LegendMM LegendMM LegendMM 4 11.3 99.99     LegendNANA
23:00 Legend Double Dagger 0.1 LegendMM LegendMM LegendMM 4 3.2 99.98     LegendNANA

Notes on Data Quality.

Legend

  • E = Estimated
  • M = Missing
  • NA = Not Available
  • ‡ = Partner data that is not subject to review by the National Climate Archives
Date modified: